GW0282 Weather Reports


time (UTC)temp
F
wind
direction
speed
knots
gust
knots
rain 1hr
in
rain 24hr
in
rain mn
in
humidity
%
barometer
mb
20260507105612 52 241 0.0 2.6 0.00 0.00 0.00 80 1020.8
20260507105108 52 182 0.9 1.7 0.00 0.00 0.00 80 1021.0
20260507104606 52 154 0.0 1.7 0.00 0.00 0.00 80 1020.8
20260507104102 52 206 0.9 1.7 0.00 0.00 0.00 80 1020.8
20260507103558 52 127 0.0 0.0 0.00 0.00 0.00 81 1020.9
20260507103055 52 11 0.0 0.9 0.00 0.00 0.00 80 1020.9
20260507102551 52 143 0.0 0.9 0.00 0.00 0.00 81 1020.8
20260507102047 52 141 0.9 1.7 0.00 0.00 0.00 80 1020.9
20260507101543 52 123 0.9 0.9 0.00 0.00 0.00 80 1020.9
20260507101039 52 156 0.0 1.7 0.00 0.00 0.00 80 1021.1
20260507100537 52 122 0.9 2.6 0.00 0.00 0.00 80 1020.9
20260507100035 53 232 0.9 2.6 0.00 0.00 0.00 80 1021.0
20260507095532 53 134 0.0 2.6 0.00 0.00 0.00 81 1021.1
20260507095029 53 161 0.0 1.7 0.00 0.00 0.00 81 1021.0
20260507094525 53 150 0.0 1.7 0.00 0.00 0.00 81 1021.1
20260507094022 53 136 0.0 0.9 0.00 0.00 0.00 82 1021.3
20260507093520 53 193 0.0 0.9 0.00 0.00 0.00 82 1021.2
20260507093018 53 160 0.0 0.9 0.00 0.00 0.00 82 1021.2
20260507092514 53 146 0.9 1.7 0.00 0.00 0.00 82 1021.3
20260507092011 53 318 0.0 1.7 0.00 0.00 0.00 82 1021.2
20260507091508 53 174 0.0 1.7 0.00 0.00 0.00 82 1021.3
20260507091004 53 206 0.9 1.7 0.00 0.00 0.00 82 1021.3
20260507090459 53 314 2.6 2.6 0.00 0.00 0.00 82 1021.4
20260507085956 53 149 0.0 1.7 0.00 0.00 0.00 83 1021.5
20260507085454 53 140 0.0 0.0 0.00 0.00 0.00 83 1021.6
20260507084950 53 100 0.0 1.7 0.00 0.00 0.00 83 1021.4
20260507084447 53 172 0.0 1.7 0.00 0.00 0.00 82 1021.4
20260507083944 53 134 0.0 0.9 0.00 0.00 0.00 82 1021.5
20260507083440 54 58 1.7 2.6 0.00 0.00 0.00 82 1021.3
20260507082937 54 169 0.0 0.9 0.00 0.00 0.00 82 1021.3
20260507082433 54 143 0.0 0.0 0.00 0.00 0.00 81 1021.5
20260507081930 54 285 1.7 1.7 0.00 0.00 0.00 81 1021.5
20260507081426 54 132 0.9 1.7 0.00 0.00 0.00 81 1021.4
20260507080923 54 294 0.9 1.7 0.00 0.00 0.00 81 1021.5
20260507080419 54 81 0.9 1.7 0.00 0.00 0.00 80 1021.5
20260507075914 54 208 0.9 2.6 0.00 0.00 0.00 81 1021.3
20260507075411 54 313 0.9 1.7 0.00 0.00 0.00 80 1021.1
20260507074908 54 261 1.7 2.6 0.00 0.00 0.00 80 1021.5
20260507074404 54 46 0.9 1.7 0.00 0.00 0.00 81 1021.4
20260507073902 54 71 1.7 1.7 0.00 0.00 0.00 81 1021.2
20260507073358 54 160 0.0 0.0 0.00 0.00 0.00 81 1021.3
20260507072855 54 353 0.9 4.3 0.00 0.00 0.00 81 1021.3
20260507072353 54 158 0.0 0.9 0.00 0.00 0.00 82 1021.1
20260507071850 54 207 0.0 2.6 0.00 0.00 0.00 82 1021.4
20260507071347 54 32 1.7 2.6 0.00 0.00 0.00 82 1021.1
20260507070843 54 127 0.0 0.9 0.00 0.00 0.00 82 1021.4
20260507070341 54 198 0.9 0.9 0.00 0.00 0.00 82 1021.2
20260507065838 54 34 0.9 1.7 0.00 0.00 0.00 82 1021.1
20260507065334 54 279 0.9 2.6 0.00 0.00 0.00 82 1021.1
20260507064831 54 259 2.6 4.3 0.00 0.00 0.00 82 1021.1
20260507064330 54 44 1.7 4.3 0.00 0.00 0.00 83 1021.3
20260507063827 54 191 0.0 1.7 0.00 0.00 0.00 83 1021.3
20260507063324 54 6 0.9 0.9 0.00 0.00 0.00 83 1021.2
20260507062821 54 16 0.0 1.7 0.00 0.00 0.00 84 1021.2
20260507062318 54 174 0.0 0.9 0.00 0.00 0.00 84 1021.4
20260507061816 54 125 0.9 1.7 0.00 0.00 0.00 84 1021.3
20260507061314 54 222 0.9 2.6 0.00 0.00 0.00 84 1021.5
20260507060812 54 177 0.0 1.7 0.00 0.00 0.00 84 1021.3
20260507060308 54 166 0.0 0.9 0.00 0.00 0.00 84 1021.4
20260507055805 54 101 0.9 1.7 0.00 0.00 0.00 84 1021.2
20260507055300 54 178 0.9 2.6 0.00 0.00 0.00 84 1021.2
20260507054756 54 126 0.0 0.9 0.00 0.00 0.00 84 1021.2
20260507054253 54 136 0.0 0.0 0.00 0.00 0.00 84 1021.3
20260507053750 54 157 0.0 1.7 0.00 0.00 0.00 84 1021.5
20260507053248 54 91 2.6 2.6 0.00 0.00 0.00 84 1021.2
20260507052747 54 42 0.9 1.7 0.00 0.00 0.00 84 1021.2
20260507052243 54 155 0.9 1.7 0.00 0.00 0.00 84 1021.3
20260507051741 54 172 0.0 0.9 0.00 0.00 0.00 84 1021.4
20260507051237 54 169 0.0 0.9 0.00 0.00 0.00 84 1021.3
20260507050734 55 182 0.0 0.9 0.00 0.00 0.00 83 1021.1
20260507050231 55 185 0.9 1.7 0.00 0.00 0.00 83 1021.4
20260507045728 55 167 0.0 1.7 0.00 0.00 0.00 83 1021.3
20260507045224 55 141 0.9 4.3 0.00 0.00 0.00 82 1021.3
20260507044722 55 178 0.9 1.7 0.00 0.00 0.00 82 1021.1
20260507044218 55 302 0.0 1.7 0.00 0.00 0.00 82 1021.2
20260507043714 56 197 0.0 1.7 0.00 0.00 0.00 81 1021.2
20260507043211 56 3 0.9 2.6 0.00 0.00 0.00 81 1021.3
20260507042708 56 106 0.9 2.6 0.00 0.00 0.00 81 1021.0
20260507042202 56 162 0.9 1.7 0.00 0.00 0.00 80 1021.1
20260507041700 56 271 1.7 2.6 0.00 0.00 0.00 81 1021.1
20260507041156 56 171 0.9 5.2 0.00 0.00 0.00 80 1020.9
20260507040653 57 151 0.9 1.7 0.00 0.00 0.00 80 1020.9
20260507040150 57 344 3.5 4.3 0.00 0.00 0.00 80 1021.1
20260507035646 57 307 1.7 4.3 0.00 0.00 0.00 80 1020.9
20260507035142 57 305 1.7 5.2 0.00 0.00 0.00 79 1020.9
20260507034639 57 238 1.7 4.3 0.00 0.00 0.00 79 1020.7
20260507034136 57 65 0.9 2.6 0.00 0.00 0.00 79 1020.7
20260507033635 57 312 1.7 1.7 0.00 0.00 0.00 79 1020.7
20260507033131 58 256 1.7 4.3 0.00 0.00 0.00 79 1020.4
20260507032629 58 109 0.0 2.6 0.00 0.00 0.00 78 1020.4
20260507032125 58 17 0.9 1.7 0.00 0.00 0.00 78 1020.4
20260507031622 58 145 0.9 4.3 0.00 0.00 0.00 78 1020.3
20260507031118 59 289 0.9 1.7 0.00 0.00 0.00 78 1020.3
20260507030615 59 147 1.7 2.6 0.00 0.00 0.00 78 1020.2
20260507030113 59 207 1.7 2.6 0.00 0.00 0.00 78 1020.3
20260507025610 59 250 0.9 2.6 0.00 0.00 0.00 78 1020.2
20260507025107 60 151 0.0 4.3 0.00 0.00 0.00 78 1019.9
20260507024605 60 86 0.9 2.6 0.00 0.00 0.00 77 1020.0
20260507024102 60 182 2.6 4.3 0.00 0.00 0.00 77 1019.9
20260507023557 60 162 0.9 1.7 0.00 0.00 0.00 77 1020.0
20260507023055 60 145 0.0 2.6 0.00 0.00 0.00 76 1019.9
20260507022551 60 148 0.0 0.0 0.00 0.00 0.00 77 1019.9
20260507022046 61 136 0.0 0.9 0.00 0.00 0.00 76 1020.0
20260507021543 61 176 0.0 1.7 0.00 0.00 0.00 75 1019.9
20260507021039 61 300 1.7 1.7 0.00 0.00 0.00 75 1020.2
20260507020538 62 133 1.7 4.3 0.00 0.00 0.00 73 1020.1
20260507020034 62 144 0.9 1.7 0.00 0.00 0.00 74 1020.0
20260507015532 62 147 0.9 2.6 0.00 0.00 0.00 74 1020.0
20260507015029 62 218 0.9 2.6 0.00 0.00 0.00 73 1020.3
20260507014526 63 146 0.9 4.3 0.00 0.00 0.00 73 1020.0
20260507014021 63 162 0.0 2.6 0.00 0.00 0.00 73 1020.0
20260507013518 63 231 0.9 2.6 0.00 0.00 0.00 74 1020.2
20260507013016 63 341 1.7 4.3 0.00 0.00 0.00 73 1020.0
20260507012513 63 143 0.9 4.3 0.00 0.00 0.00 74 1020.2
20260507012009 63 171 2.6 4.3 0.00 0.00 0.00 73 1020.3
20260507011506 64 70 4.3 5.2 0.00 0.00 0.00 72 1020.3
20260507011002 64 196 0.0 2.6 0.00 0.00 0.00 72 1020.0
20260507010456 64 212 0.9 1.7 0.00 0.00 0.00 72 1020.1
20260507005954 64 103 0.0 2.6 0.00 0.00 0.00 72 1020.0
20260507005451 65 184 0.9 2.6 0.00 0.00 0.00 71 1020.0
20260507004947 65 175 0.0 0.9 0.00 0.00 0.00 71 1020.2
20260507004444 65 178 0.9 4.3 0.00 0.00 0.00 71 1020.2
20260507003942 66 306 3.5 5.2 0.00 0.00 0.00 70 1020.1
20260507003437 66 141 0.9 4.3 0.00 0.00 0.00 70 1020.0
20260507002932 66 177 0.0 1.7 0.00 0.00 0.00 70 1020.0
20260507002428 67 139 0.9 5.2 0.00 0.00 0.00 69 1019.9
20260507001926 67 97 0.9 0.9 0.00 0.00 0.00 69 1020.0
20260507001422 67 189 0.9 2.6 0.00 0.00 0.00 69 1020.0
20260507000920 67 181 0.0 2.6 0.00 0.00 0.00 69 1019.9
20260507000415 67 121 0.9 2.6 0.00 0.00 0.00 70 1019.9
20260506235911 68 191 0.9 1.7 0.00 0.00 0.00 70 1020.0
20260506235409 67 23 0.9 4.3 0.00 0.00 0.00 71 1020.0
20260506234904 67 177 0.9 0.9 0.00 0.00 0.00 71 1019.9
20260506234402 68 246 0.9 4.3 0.00 0.00 0.00 71 1020.1
20260506233859 67 187 0.0 2.6 0.00 0.00 0.00 72 1019.9
20260506233355 67 110 0.0 0.9 0.00 0.00 0.00 73 1019.8
20260506232852 68 287 0.9 1.7 0.00 0.00 0.00 72 1019.6
20260506232348 68 148 0.0 0.9 0.00 0.00 0.00 72 1019.8
20260506231844 68 143 0.0 1.7 0.00 0.00 0.00 72 1020.0
20260506231342 68 157 0.9 2.6 0.00 0.00 0.00 71 1019.9
20260506230839 69 197 0.9 1.7 0.00 0.00 0.00 69 1019.9
20260506230336 69 129 0.0 0.9 0.00 0.00 0.00 70 1019.9
20260506225832 67 154 0.0 0.9 0.00 0.00 0.00 71 1020.0
20260506225330 69 97 1.7 2.6 0.00 0.00 0.00 69 1020.0
20260506224827 69 145 0.0 0.9 0.00 0.00 0.00 68 1020.1
20260506224324 68 318 1.7 1.7 0.00 0.00 0.00 69 1020.2
20260506223820 68 163 0.9 0.9 0.00 0.00 0.00 70 1020.2
20260506223315 68 167 0.9 0.9 0.00 0.00 0.00 70 1020.3
20260506222812 69 149 1.7 2.6 0.00 0.00 0.00 69 1020.4
20260506222308 68 152 0.0 0.0 0.00 0.00 0.00 70 1020.4
20260506221801 66 255 1.7 2.6 0.00 0.00 0.00 70 1020.3
20260506221258 66 287 2.6 4.3 0.00 0.00 0.00 70 1020.3
20260506220755 67 192 1.7 4.3 0.00 0.00 0.00 69 1020.4
20260506220250 67 298 4.3 5.2 0.00 0.00 0.00 68 1020.4
20260506215747 67 260 0.9 5.2 0.00 0.00 0.00 70 1020.5
20260506215242 67 274 2.6 2.6 0.00 0.00 0.00 69 1020.5
20260506214739 66 227 2.6 4.3 0.00 0.00 0.00 71 1020.6
20260506214236 66 169 1.7 2.6 0.00 0.00 0.00 70 1020.4
20260506213735 66 305 3.5 5.2 0.00 0.00 0.00 71 1020.5
20260506213232 66 180 2.6 4.3 0.00 0.00 0.00 72 1020.3
20260506212729 66 248 2.6 4.3 0.00 0.00 0.00 71 1020.5
20260506212224 66 259 1.7 1.7 0.00 0.00 0.00 71 1020.4
20260506211720 66 311 1.7 2.6 0.00 0.00 0.00 71 1020.6
20260506211216 66 285 1.7 1.7 0.00 0.00 0.00 72 1020.6
20260506210713 66 276 2.6 2.6 0.00 0.00 0.00 73 1021.0
20260506210210 66 303 3.5 5.2 0.00 0.00 0.00 72 1020.8
20260506205707 64 295 1.7 1.7 0.00 0.00 0.00 73 1020.8
20260506205202 65 266 0.9 5.2 0.00 0.00 0.00 74 1021.0
20260506204700 66 152 0.9 2.6 0.00 0.00 0.00 72 1020.9
20260506204156 64 160 0.0 2.6 0.00 0.00 0.00 74 1020.9
20260506203655 64 245 1.7 2.6 0.00 0.00 0.00 74 1020.9
20260506203152 65 217 1.7 5.2 0.00 0.00 0.00 74 1021.0
20260506202650 64 159 1.7 4.3 0.00 0.00 0.00 74 1020.9
20260506202145 65 237 0.0 1.7 0.00 0.00 0.00 73 1020.7
20260506201642 64 183 0.9 2.6 0.00 0.00 0.00 77 1020.9
20260506201139 64 135 0.9 1.7 0.00 0.00 0.00 76 1020.9
20260506200636 64 173 0.9 1.7 0.00 0.00 0.00 77 1020.7
20260506200133 63 174 2.6 2.6 0.00 0.00 0.00 79 1020.7
20260506195629 62 105 0.9 0.9 0.00 0.00 0.00 80 1020.9
20260506195125 62 177 0.9 1.7 0.00 0.00 0.00 80 1021.1
20260506194623 63 177 0.0 0.9 0.00 0.00 0.00 78 1020.9
20260506194119 62 105 0.0 0.9 0.00 0.00 0.00 81 1021.0
20260506193617 61 108 0.0 0.9 0.00 0.00 0.00 81 1021.2
20260506193114 61 293 2.6 4.3 0.00 0.00 0.00 82 1021.3
20260506192611 61 301 1.7 2.6 0.00 0.00 0.00 81 1021.2
20260506192107 62 190 0.0 0.9 0.00 0.00 0.00 81 1021.2
20260506191603 61 181 0.0 2.6 0.00 0.00 0.00 82 1021.3
20260506191059 61 167 0.0 1.7 0.00 0.00 0.00 81 1021.0
20260506190557 61 191 0.9 2.6 0.00 0.00 0.00 81 1021.0
20260506190054 61 171 0.9 1.7 0.00 0.00 0.00 80 1021.2
20260506185551 61 198 0.0 0.0 0.00 0.00 0.00 80 1021.1
20260506185047 60 285 2.6 2.6 0.00 0.00 0.00 82 1021.0
20260506184545 60 212 0.9 0.9 0.00 0.00 0.00 82 1020.9
20260506184042 60 201 0.9 1.7 0.00 0.00 0.00 82 1021.1
20260506183538 60 295 1.7 2.6 0.00 0.00 0.00 82 1020.9
20260506183034 60 243 1.7 2.6 0.00 0.00 0.00 83 1021.0
20260506182532 60 268 2.6 2.6 0.00 0.00 0.00 82 1020.9
20260506182029 60 272 1.7 2.6 0.00 0.00 0.00 83 1020.9
20260506181527 60 197 0.9 1.7 0.00 0.00 0.00 83 1021.0
20260506181023 59 183 0.0 1.7 0.00 0.00 0.00 84 1021.1
20260506180520 59 290 2.6 2.6 0.00 0.00 0.00 84 1021.3
20260506180017 59 192 0.9 1.7 0.00 0.00 0.00 84 1021.2
20260506175513 59 286 1.7 1.7 0.00 0.00 0.00 83 1021.0
20260506175010 59 298 2.6 2.6 0.00 0.00 0.00 83 1020.9
20260506174508 59 213 0.9 1.7 0.00 0.00 0.00 84 1020.9
20260506174004 58 298 0.9 2.6 0.00 0.00 0.00 84 1020.8
20260506173502 59 152 0.0 1.7 0.00 0.00 0.00 83 1020.9
20260506172959 59 192 0.9 1.7 0.00 0.00 0.00 83 1020.6
20260506172456 59 130 0.0 0.9 0.00 0.00 0.00 82 1020.8
20260506171952 60 148 0.0 0.9 0.00 0.00 0.00 82 1020.7
20260506171449 59 170 0.9 0.9 0.00 0.00 0.00 83 1020.7
20260506170947 58 140 0.0 1.7 0.00 0.00 0.00 83 1020.5
20260506170443 58 107 0.9 1.7 0.00 0.00 0.00 85 1020.8
20260506165936 58 92 1.7 1.7 0.00 0.00 0.00 83 1020.7
20260506165434 58 138 0.0 0.0 0.00 0.00 0.00 84 1020.6
20260506164930 58 109 0.9 1.7 0.00 0.00 0.00 84 1020.9
20260506164427 58 161 0.0 0.9 0.00 0.00 0.00 84 1020.8
20260506163919 58 319 1.7 2.6 0.00 0.00 0.00 85 1020.8
20260506163414 58 248 0.9 1.7 0.00 0.00 0.00 85 1020.7
20260506162909 58 157 0.0 0.9 0.00 0.00 0.00 85 1020.8
20260506162407 57 206 0.9 0.9 0.00 0.00 0.00 86 1020.8
20260506161904 57 294 0.9 1.7 0.00 0.00 0.00 85 1020.8
20260506161401 57 169 0.0 0.9 0.00 0.00 0.00 85 1020.7
20260506160853 58 123 0.0 0.9 0.00 0.00 0.00 83 1020.6
20260506160350 58 145 0.0 0.0 0.00 0.00 0.00 84 1020.5
20260506155848 57 107 0.0 0.9 0.00 0.00 0.00 85 1020.4
20260506155345 57 200 0.0 0.9 0.00 0.00 0.00 85 1020.3
20260506153502 56 118 0.9 2.6 0.00 0.00 0.00 86 1020.2
20260506153000 56 134 0.0 1.7 0.00 0.00 0.00 86 1020.2
20260506152456 56 123 0.9 1.7 0.00 0.00 0.00 87 1020.4
20260506151955 56 153 0.0 0.9 0.00 0.00 0.00 88 1020.5
20260506151452 56 189 0.0 1.7 0.00 0.00 0.00 88 1020.6
20260506150949 56 154 0.0 0.9 0.00 0.00 0.00 89 1020.7
20260506150445 56 356 0.9 1.7 0.00 0.00 0.00 89 1020.5
20260506145942 55 215 0.9 1.7 0.00 0.00 0.00 89 1020.7
20260506145438 55 167 0.0 0.9 0.00 0.00 0.00 89 1020.6
20260506144936 55 150 0.0 0.9 0.00 0.00 0.00 89 1020.6
20260506144432 55 199 0.0 1.7 0.00 0.00 0.00 89 1020.7
20260506143931 55 176 0.0 1.7 0.00 0.00 0.00 90 1020.3
20260506143428 55 113 0.0 0.9 0.00 0.00 0.00 90 1020.3
20260506142926 55 160 0.0 1.7 0.00 0.00 0.00 90 1020.3
20260506142424 55 263 0.9 1.7 0.00 0.00 0.00 90 1020.1
20260506141921 55 271 0.9 0.9 0.00 0.00 0.00 90 1020.1
20260506141419 55 300 0.9 1.7 0.00 0.00 0.00 90 1019.9
20260506140918 55 148 0.9 0.9 0.00 0.00 0.00 90 1019.8
20260506140414 55 158 0.0 0.9 0.00 0.00 0.00 90 1019.8
20260506135911 55 318 1.7 1.7 0.00 0.00 0.00 90 1019.6
20260506135408 55 169 0.0 0.9 0.00 0.00 0.00 90 1020.0
20260506134904 55 117 0.0 0.9 0.00 0.00 0.00 90 1019.8
20260506134400 55 198 0.0 0.0 0.00 0.00 0.00 90 1019.8
20260506133857 55 153 0.0 0.9 0.00 0.00 0.00 91 1019.8
20260506133354 55 119 0.0 1.7 0.00 0.00 0.00 91 1019.7
20260506132850 55 138 0.0 0.9 0.00 0.00 0.00 91 1019.7
20260506132348 55 277 1.7 1.7 0.00 0.00 0.00 91 1019.6
20260506131846 55 179 0.0 0.9 0.00 0.00 0.00 91 1019.6
20260506131342 55 137 0.0 0.0 0.00 0.00 0.00 91 1019.7
20260506130839 55 154 0.0 0.0 0.00 0.00 0.00 91 1019.4
20260506130335 55 160 0.0 0.0 0.00 0.00 0.00 91 1019.5
20260506125834 55 156 0.0 0.0 0.00 0.00 0.00 91 1019.4
20260506125332 55 142 0.0 0.0 0.00 0.00 0.00 91 1019.4
20260506124830 55 198 0.0 0.0 0.00 0.00 0.00 91 1019.3
20260506124326 55 252 0.0 0.0 0.00 0.00 0.00 91 1019.1
20260506123824 55 156 0.0 0.0 0.00 0.00 0.00 91 1019.3
20260506123322 55 150 0.0 0.0 0.00 0.00 0.00 91 1019.3
20260506122819 55 144 0.0 0.0 0.00 0.00 0.00 91 1019.1
20260506122316 55 143 0.0 0.0 0.00 0.00 0.00 91 1019.3
20260506121814 55 192 0.0 0.0 0.00 0.00 0.00 90 1019.2
20260506121311 55 156 0.0 0.0 0.00 0.00 0.00 90 1019.1
20260506120808 55 136 0.0 0.0 0.00 0.00 0.00 90 1019.1
20260506120306 55 149 0.0 0.0 0.00 0.00 0.00 90 1019.4
20260506115803 55 149 0.0 0.0 0.00 0.00 0.00 90 1019.1
20260506115306 56 134 0.0 0.9 0.00 0.00 0.00 90 1019.0
20260506114759 56 178 0.0 5.2 0.00 0.00 0.00 90 1019.1
20260506114256 56 146 0.0 0.9 0.00 0.00 0.00 90 1018.9
20260506113755 56 154 0.0 0.9 0.00 0.00 0.00 90 1018.9
20260506113252 56 290 0.0 0.9 0.00 0.00 0.00 90 1018.8
20260506112748 56 146 0.0 0.9 0.00 0.00 0.00 90 1018.8
20260506112246 56 181 0.0 0.9 0.00 0.00 0.00 90 1018.8
20260506111743 56 154 0.0 0.9 0.00 0.00 0.00 89 1018.8
20260506111241 56 182 0.0 0.9 0.00 0.00 0.00 89 1018.6
20260506110738 56 126 0.0 0.9 0.00 0.00 0.00 89 1018.8
20260506110236 56 140 0.9 0.9 0.00 0.00 0.00 89 1018.8
20260506105732 56 184 0.0 0.0 0.00 0.00 0.00 89 1018.6